Flag for United Kingdom Weather past 2 weeks in Perth, Scotland, United Kingdom

Now
59 °F

Refreshingly cool.


Feels Like: 57 °F
Forecast: 41 / 60 °F
Wind: 9 mph from North

Location: Strathallan

Current Time: Jul 29, 2015 at 1:13:04 PM

Latest Report: Jul 29, 2015 at 12:00 PM


Visibility: 28 mi

Pressure: 29.83 "Hg

Humidity: 57%

Dew point: 44 °F

Location of PerthLocation

Historic Weather in Perth — Graph

°F

Perth temperature yesterday

Maximum temperature yesterday: 59 °F (at 1:00 PM)
Minimum temperature yesterday: 49 °F (at 5:00 AM)
Average temperature yesterday: 53 °F

Past Weeks' High & Low Weather Summary

 TemperatureHumidityPressure
High65 °F (Jul 15, 4:00 PM)100% (Jul 16, 5:00 AM)30.17 "Hg (Jul 16, 5:00 AM)
Low46 °F (Jul 22, 2:00 AM)41% (Jul 15, 4:00 PM)29.47 "Hg (Jul 26, 11:00 PM)
Average55 °F85%29.80 "Hg
* Reported Jul 14 10:00 AM — Jul 29 10:00 AM, Perth, Weather by CustomWeather, © 2015

Note: Actual official high and low records may vary slightly from our data, if they occured in-between our weather recording intervals... More about our weather records

Advertising

Perth weather history for previous 24 hours

 ConditionsComfort  
Time TempWeatherWind HumidityBarometerVisibility
10:00 AM
Wed, Jul 29
58 °FCool.12 mph64%29.81 "Hg17 mi
9:00 AM56 °FCool.12 mph69%29.81 "Hg31 mi
8:00 AM53 °FCool.7 mph79%29.80 "Hg25 mi
7:00 AM49 °FCool.3 mph100%29.79 "Hg31 mi
6:00 AM48 °FCool.1 mph100%29.78 "Hg19 mi
5:00 AM48 °FRain showers. Overcast.1 mph100%29.77 "Hg22 mi
4:00 AM47 °FCool.1 mph100%29.76 "Hg25 mi
3:00 AM47 °FCool.2 mph100%29.76 "Hg1 mi
2:00 AM48 °FCool.1 mph100%29.76 "Hg10 mi
1:00 AM48 °FCool.2 mph99%29.75 "Hg22 mi
12:00 AM49 °FCool.1 mph99%29.74 "Hg19 mi
11:00 PM
Tue, Jul 28
50 °FCool.2 mph97%29.73 "Hg25 mi
9:00 PM53 °FLight rain. Cloudy.2 mph93%29.71 "Hg31 mi
8:00 PM53 °FLight rain. Cloudy.3 mph90%29.70 "Hg25 mi
7:00 PM54 °FLight rain. Cloudy.1 mph86%29.69 "Hg19 mi
6:00 PM53 °FLight rain. Cloudy.3 mph86%29.69 "Hg22 mi
5:00 PM54 °FRain. Cloudy.2 mph85%29.69 "Hg9 mi
4:00 PM54 °FLight rain. Cloudy.3 mph89%29.68 "Hg22 mi
3:00 PM53 °FRain. Cloudy.3 mph92%29.66 "Hg11 mi
2:00 PM53 °FRain showers. Cloudy.13 mph75%29.65 "Hg19 mi
1:00 PM59 °FCool.3 mph66%29.64 "Hg31 mi
Weather by CustomWeather, © 2015

See weather overviewHow to use our weather pages